Погода в Недельном

Россия / Калужская область     54°50′18″N   36°38′56″E
темп.,
°C
ветер,
м/с
пор.,
м/с
влажн.,
%
обл.,
%
осадки,
мм/ч
давл.,
гПа
погр.,
м
11 мая, вт
вт1100:00+5св311830 0.0 1026227
03:00+4ссв311870 0.0 1027234
06:00+6св413850 0.0 1026384
09:00+12св59630 0.0 1026552
12:00+16св58575 0.0 1025770
15:00+18всв57595 0.0 10241056
18:00+18всв487010 0.0 10241134
21:00+13вюв2795100 0.5 1025189
12 мая, ср
ср1200:00+10юв38936 0.0 1026307
03:00+7юв22954 0.0 102739
06:00+7вюв11924 0.0 102739
09:00+13всв2370100 0.0 1026543
12:00+13с237099 0.3 1024677
15:00+12ссв31085100 0.7 1020452
18:00+11ююв3898100 2.0 1018511
21:00+8ююв389872 3.1 1020317
13 мая, чт
чт1300:00+5вюв279822 0.0 1020157
03:00+6в399767 0.0 1020199
06:00+7в41395100 0.0 1019348
09:00+12вюв4883100 0.0 1018482
12:00+15вюв4771100 0.1 1017757
15:00+16ююв4765100 0.6 10161285
18:00+15ююв478087 0.6 1015708
21:00+11ююв2596100 1.1 1016103
14 мая, пт
пт1400:00+9ююв239612 0.0 101656
03:00+9ююв2395100 0.0 101740
06:00+10юв2594100 0.0 1017131
09:00+14вюв41191100 0.1 1015375
12:00+19юв51082100 1.3 10151063
15:00+20юв51179100 3.6 10131196
18:00+19ююв51282100 4.2 1011572
21:00+16ю3129397 4.6 1010271
15 мая, сб
сб1500:00+14ю3997100 0.8 1010193
03:00+14ю2797100 1.5 1010191
06:00+14ююв2697100 0.0 1010153
09:00+16ю41289100 0.4 1010696
12:00+21ю586198 0.0 10081017
15:00+20ю598079 2.4 10071066
18:00+19ююз49825 2.2 1007643
21:00+14ю2593100 3.0 1007116